TimeMST,TemperatureF,Dew PointF,Humidity,Sea Level PressureIn,VisibilityMPH,Wind Direction,Wind SpeedMPH,Gust SpeedMPH,PrecipitationIn,Events,Conditions,WindDirDegrees,DateUTC
12:53 AM,21.0,15.1,78,30.08,10.0,ESE,3.5,-,N/A,,Clear,110,2014-01-23 07:53:00
1:53 AM,19.9,15.1,81,30.09,10.0,ENE,6.9,-,N/A,,Clear,70,2014-01-23 08:53:00
2:53 AM,17.1,14.0,88,30.14,10.0,ENE,3.5,-,N/A,,Clear,70,2014-01-23 09:53:00
3:53 AM,21.0,17.1,85,30.14,10.0,Calm,Calm,-,N/A,,Clear,0,2014-01-23 10:53:00
4:53 AM,24.1,17.1,75,30.17,10.0,North,5.8,-,N/A,,Overcast,350,2014-01-23 11:53:00
5:53 AM,19.0,16.0,88,30.24,10.0,Calm,Calm,-,N/A,,Clear,0,2014-01-23 12:53:00
6:53 AM,21.9,18.0,85,30.27,10.0,Calm,Calm,-,N/A,,Mostly Cloudy,0,2014-01-23 13:53:00
7:53 AM,28.0,18.0,66,30.30,10.0,WNW,3.5,-,N/A,,Overcast,300,2014-01-23 14:53:00
8:53 AM,27.0,18.0,69,30.34,10.0,NNW,5.8,-,N/A,,Mostly Cloudy,340,2014-01-23 15:53:00
9:53 AM,28.9,21.9,75,30.38,10.0,Calm,Calm,-,N/A,,Clear,0,2014-01-23 16:53:00
10:53 AM,32.0,21.9,66,30.38,10.0,NW,5.8,-,N/A,,Clear,310,2014-01-23 17:53:00
11:53 AM,34.0,23.0,64,30.40,10.0,WNW,4.6,-,N/A,,Clear,300,2014-01-23 18:53:00
12:53 PM,36.0,24.1,62,30.38,10.0,NNW,6.9,-,N/A,,Clear,340,2014-01-23 19:53:00
1:53 PM,37.0,23.0,57,30.36,10.0,NNW,3.5,-,N/A,,Clear,330,2014-01-23 20:53:00
2:53 PM,37.9,23.0,55,30.37,10.0,WNW,5.8,-,N/A,,Clear,300,2014-01-23 21:53:00
3:53 PM,39.9,16.0,38,30.36,10.0,Calm,Calm,-,N/A,,Clear,0,2014-01-23 22:53:00
4:53 PM,34.0,21.9,61,30.39,10.0,NW,6.9,-,N/A,,Clear,320,2014-01-23 23:53:00
5:53 PM,30.0,21.0,69,30.44,10.0,NE,5.8,-,N/A,,Clear,50,2014-01-24 00:53:00
6:53 PM,27.0,19.0,72,30.46,10.0,NNE,3.5,-,N/A,,Clear,30,2014-01-24 01:53:00
7:53 PM,25.0,12.9,60,30.48,10.0,NNW,4.6,-,N/A,,Clear,330,2014-01-24 02:53:00
8:53 PM,28.0,8.1,43,30.51,10.0,Calm,Calm,-,N/A,,Clear,0,2014-01-24 03:53:00
9:53 PM,21.0,12.9,71,30.56,10.0,Calm,Calm,-,N/A,,Clear,0,2014-01-24 04:53:00
10:53 PM,19.0,12.9,77,30.57,10.0,East,3.5,-,N/A,,Clear,90,2014-01-24 05:53:00
11:53 PM,18.0,12.0,78,30.60,10.0,East,4.6,-,N/A,,Clear,100,2014-01-24 06:53:00